Regional Weather Roundup
Issued by NWS Northern Indiana

Home | Current Version | Previous Version | Graphics & Text | Print | Product List | Glossary On
Versions: 1 2 3 4 5 6 7 8 9 10 11 12 13 14 15 16 17 18 19 20 21 22 23 24 25 26 27 28 29 30 31 32 33 34 35 36 37 38 39 40 41 42 43 44 45 46 47 48 49 50
000
ASUS43 KIWX 231200
RWRIWX

KIWX WEATHER ROUNDUP
NATIONAL WEATHER SERVICE NORTHERN INDIANA
800 AM EDT WED AUG 23 2017

NOTE: "FAIR" INDICATES FEW OR NO CLOUDS BELOW 12,000 FEET WITH NO
SIGNIFICANT WEATHER AND/OR OBSTRUCTIONS TO VISIBILITY.

* THESE STATIONS ARE NOT UNDER NWS QUALITY CONTROL. THEY ALSO MAY NOT
  REPORT WEATHER SUCH AS PRECIPITATION OR FOG.

INZ001>027-231300-
NORTHERN INDIANA

CITY           SKY/WX    TMP DP  RH WIND       PRES   REMARKS
GARY*          CLEAR     55  52  88 W7        30.04R
MICHIGAN CITY* CLEAR     64  52  63 NW3       30.02S
SOUTH BEND     CLEAR     59  58  96 W6        30.01S
6HR MIN TEMP:  54; 6HR MAX TEMP:  59;

ELKHART*       CLEAR     57  54  88 W5        30.00S
GOSHEN         SUNNY     57  53  86 S3        30.00R
6HR MIN TEMP:  55; 6HR MAX TEMP:  58;

MONTICELLO*    CLEAR     55  54  95 W3        30.02S
6HR MIN TEMP:  54; 6HR MAX TEMP:  61;

FORT WAYNE     MOSUNNY   58  56  93 W6        30.01R
6HR MIN TEMP:  55; 6HR MAX TEMP:  58;

PERU/GRISSOM   PTCLDY    57  57 100 W3        30.02R
6HR MIN TEMP:  56; 6HR MAX TEMP:  62;


$$
INZ028>050-231300-
CENTRAL INDIANA

CITY           SKY/WX    TMP DP  RH WIND       PRES   REMARKS
LAFAYETTE      CLEAR     55  55 100 CALM      30.04R
6HR MIN TEMP:  54; 6HR MAX TEMP:  61;

KOKOMO*        CLEAR     59  56  89 W5        30.04R
6HR MIN TEMP:  57; 6HR MAX TEMP:  61;

MUNCIE*        SUNNY     60  57  89 W3        30.02R
6HR MIN TEMP:  54; 6HR MAX TEMP:  60;

INDIANAPOLIS   MOCLDY    60  57  89 W3        30.03R
6HR MIN TEMP:  58; 6HR MAX TEMP:  63;


$$
MIZ043>046-050>051-056>058-064>065-071>073-077>080-231300-
SOUTHWEST LOWER MICHIGAN

CITY           SKY/WX    TMP DP  RH WIND       PRES   REMARKS
BATTLE CREEK   SUNNY     59  55  87 W6        29.98S
6HR MIN TEMP:  56; 6HR MAX TEMP:  64;

BENTON HARBOR  CLEAR     68  52  56 NW9       29.99R
6HR MIN TEMP:  67; 6HR MAX TEMP:  70;

COLDWATER*     SUNNY     56  56 100 SW5       29.99R
6HR MIN TEMP:  54; 6HR MAX TEMP:  56;

HILLSDALE*     SUNNY     57  52  82 W7        29.98R
HOLLAND        PTCLDY    67  54  63 NW7       29.98R
6HR MIN TEMP:  65; 6HR MAX TEMP:  69;

GRAND RAPIDS   MOSUNNY   61  55  81 SW5       29.97R
6HR MIN TEMP:  57; 6HR MAX TEMP:  63;

KALAMAZOO      SUNNY     59  53  80 SW5       29.99R
6HR MIN TEMP:  58; 6HR MAX TEMP:  62;

STURGIS*       SUNNY     56  54  95 CALM      29.99R
6HR MIN TEMP:  53; 6HR MAX TEMP:  57;

THREE RIVERS*  FAIR      60  55  84 CALM      29.99S
6HR MIN TEMP:  57; 6HR MAX TEMP:  60;


$$
OHZ001>008-015>018-024>025-231300-
NORTHWEST OHIO

CITY           SKY/WX    TMP DP  RH WIND       PRES   REMARKS
DEFIANCE       SUNNY     56  54  93 CALM      29.99R
6HR MIN TEMP:  53; 6HR MAX TEMP:  57;

FINDLAY        SUNNY     59  54  83 W5        29.98R
6HR MIN TEMP:  53; 6HR MAX TEMP:  59;

TOLEDO EXPRESS SUNNY     58  56  93 W7        29.97R
6HR MIN TEMP:  55; 6HR MAX TEMP:  59;

TOLEDO METCALF SUNNY     59  55  87 SW6       29.98R
6HR MIN TEMP:  55; 6HR MAX TEMP:  61;

LIMA           SUNNY     58  56  93 SW5       30.00R
6HR MIN TEMP:  53; 6HR MAX TEMP:  60;


$$
AND FOR LAKE MICHIGAN COASTAL AND OPEN LAKE BUOY OBSERVATIONS

STATION/POSITION TEMP    WIND        PRES    VSBY  WAVE
                 AIR SEA DIR/SP/G                  HT/PER
                 (F)     (DEG/KT/KT) (MB)    (MI)  (FT/S)
CALUMET HARBOR    61     260/  3/  5 1016.1R
MICHIGAN CITY     69     290/ 15/ 17   N/A
BURNS HARBOR      69     280/ 11/ 13 1016.9R
SAINT JOSEPH      70     320/ 14/ 16 1016.6
SOUTH LAKE BUOY   67 71  330/ 17/ 21 1014.7          4/ 4
4 MI NW BRIDGMAN  70 73  330/ 16/ 19 1015.8R         5/ 6
MICHIGAN CITY     69 73  310/ 14/ 17   N/A           5/ 6

$$
&&




USA.gov is the U.S. government's official web portal to all federal, state and local government web resources and services.